Meteo Giornale » Osservazioni meteo Stati Uniti (USA) » Otis

ore: 20:56 - Osservazioni Meteo Otis
Lat. 41° 39' N Lon. 70° 31' W Alt. 40 metri s.l.m.

coperto

19 °C

Coperto

Temp. 24 Ore

18 °C

23 °C

Sud

7.4 Km/h

Dew point 16 °C

Umidità 82 %

Visibilità  10 Km

Il sole sorge alle ore 06:07

Il sole tramonta alle ore 19:17

Data e Ora Cielo e Fenomeni T °C DP °C Um. % Pres. hPa Vis. km Vento km/h
Oggi h: 20:56 coperto Coperto 19 16 82 1019 10 S 7.4
Oggi h: 19:56 poco_nuvoloso Poco Nuvoloso 18 16 88 1020 10 S/SE 9.3
Oggi h: 18:56 sereno Sereno 20 16 77 1020 10 S 11.1
Oggi h: 17:56 sereno Sereno 21 16 73 1020 10 S/SE 13
Oggi h: 16:56 sereno Sereno 22 17 73 1020 10 S/SE 16.7
Oggi h: 15:56 sereno Sereno 22 14 60 1020 10 E 11.1
Oggi h: 14:56 sereno Sereno 22 14 60 1020 10 NE 7.4
Oggi h: 13:56 sereno Sereno 23 13 53 1020 10 E/NE 13
Oggi h: 12:56 sereno Sereno 23 13 53 1021 10 E/NE 13
Oggi h: 11:55 poco_nuvoloso Poco Nuvoloso 22 14 60 1021 10 E/NE 7.4
Oggi h: 10:55 sereno Sereno 21 16 73 1021 10 N/NE 14.8
Oggi h: 09:55 sereno Sereno 21 16 73 1020 10 N/NE 14.8
Oggi h: 08:55 poco_nuvoloso Poco Nuvoloso 20 17 82 1020 10 N/NE 14.8
Oggi h: 07:55 poco_nuvoloso Poco Nuvoloso 18 17 93 1020 10 NE 11.1
Oggi h: 06:50 poco_nuvoloso Poco Nuvoloso 18 18 100 1020 10 N 5.5
Oggi h: 05:55 sereno Sereno 18 18 100 1019 10 N/NE 9.3
Oggi h: 04:55 sereno Sereno 18 18 100 1018 10 N 7.4
Oggi h: 03:55 sereno Sereno 19 18 93 1018 10 NO 7.4
Oggi h: 02:55 poco_nuvoloso Poco Nuvoloso 19 19 100 1017 13 N 0
Oggi h: 01:55 coperto_pioggia Pioggia 19 19 100 1017 10 N 0
Oggi h: 00:55 coperto_pioggia Pioggia 21 21 100 1018 13 O/NO 7.4
Oggi h: 00:16 coperto_pioggia Pioggia Foschia 20 20 100 1018 10 O 7.4
Ieri h: 23:55 coperto_pioggia Pioggia 20 19 93 1018 10 O/SO 7.4
Ieri h: 22:55 coperto_pioggia Pioggia 21 20 94 1018 10 O 20.3
Ieri h: 21:55 coperto_pioggia Pioggia 22 20 88 1018 10 O/SO 27.8